Weather History for KONO - April, 2014

Change the Weather History Date:

Saturday, April 12, 2014

  Actual Average Record
Temperature  
Mean Temperature 57 °F 49 °F  
Max Temperature 67 °F 64 °F 80 °F (1988)
Min Temperature 47 °F 35 °F 22 °F (1997)
Degree Days  
Heating Degree Days 8 16  
Month to date heating degree days 153 201  
Since 1 July heating degree days 5497 5501  
Cooling Degree Days 0 0  
Month to date cooling degree days 0 0  
Year to date cooling degree days 0 0  
Growing Degree Days 7 (Base 50)    
Moisture  
Dew Point 26 °F    
Average Humidity 35    
Maximum Humidity 56    
Minimum Humidity 14    
Precipitation  
Precipitation 0.00 in 0.03 in 0.25 in (1992)
Month to date precipitation 0.19 0.33  
Year to date precipitation 3.37 3.32  
Sea Level Pressure  
Sea Level Pressure 29.85 in    
Wind  
Wind Speed 17 mph (NW)    
Max Wind Speed 32 mph    
Max Gust Speed 40 mph    
Visibility 10 miles    
Events      
T = Trace of Precipitation, MM = Missing Value Source: NWS Daily Summary

Daily Weather History Graph

Daily Weather History Graph

Search for Another Location

Airport or City:

Trip Planner

Search our weather history database for the weather conditions in past years. The results will help you decide how hot, cold, wet, or windy it might be!

Date:

Astronomy

Apr. 12, 2014 Rise Set
Actual Time 7:09 AM MDT 8:28 PM MDT
Civil Twilight 6:39 AM MDT 8:58 PM MDT
Nautical Twilight 6:04 AM MDT 9:34 PM MDT
Astronomical Twilight 5:26 AM MDT 10:12 PM MDT
Moon 6:07 PM MDT (4/12) 5:44 AM MDT (4/12)
Length of Visible Light 14h 18m
Length of Day
13h 18m
Waxing Gibbous, 93% of the Moon is Illuminated
Apr 12
Waxing Gibbous
Apr 15
Full
Apr 22
Last Quarter
Apr 29
New
May 6
First Quarter

Hourly Weather History & Observations

Time (MDT) Temp. Dew Point Humidity Pressure Visibility Wind Dir Wind Speed Gust Speed Precip Events Conditions
12:53 AM 57.0 °F 32.0 °F 39% 29.84 in 10.0 mi Calm Calm - N/A   Clear
1:53 AM 55.0 °F 33.1 °F 43% 29.84 in 10.0 mi Calm Calm - N/A   Clear
2:53 AM 54.0 °F 32.0 °F 43% 29.83 in 10.0 mi NW 9.2 mph - N/A   Clear
3:53 AM 55.0 °F 32.0 °F 42% 29.83 in 10.0 mi SW 6.9 mph 18.4 mph N/A   Clear
4:53 AM 53.1 °F 33.1 °F 47% 29.84 in 10.0 mi WNW 12.7 mph - N/A   Clear
5:53 AM 51.1 °F 32.0 °F 48% 29.84 in 10.0 mi NW 11.5 mph 19.6 mph N/A   Clear
6:53 AM 48.9 °F 33.1 °F 54% 29.86 in 10.0 mi West 16.1 mph - N/A   Clear
7:53 AM 50.0 °F 30.9 °F 48% 29.87 in 10.0 mi NW 18.4 mph 26.5 mph N/A   Clear
8:53 AM 51.1 °F 32.0 °F 48% 29.89 in 10.0 mi West 9.2 mph - N/A   Clear
9:53 AM 55.0 °F 28.0 °F 35% 29.88 in 10.0 mi NW 24.2 mph 31.1 mph N/A   Clear
10:53 AM 57.9 °F 28.0 °F 32% 29.89 in 10.0 mi NW 21.9 mph - N/A   Clear
11:53 AM 62.1 °F 28.9 °F 29% 29.88 in 10.0 mi NNW 15.0 mph - N/A   Clear
12:53 PM 63.0 °F 27.0 °F 26% 29.85 in 10.0 mi WNW 18.4 mph 24.2 mph N/A   Clear
1:53 PM 64.9 °F 18.0 °F 16% 29.84 in 10.0 mi NNW 16.1 mph 26.5 mph N/A   Clear
2:53 PM 66.9 °F 18.0 °F 15% 29.82 in 10.0 mi NW 16.1 mph 21.9 mph N/A   Clear
3:53 PM 66.0 °F 19.9 °F 17% 29.81 in 10.0 mi NNW 20.7 mph 32.2 mph N/A   Clear
4:53 PM 66.0 °F 17.1 °F 15% 29.81 in 10.0 mi NNW 20.7 mph 27.6 mph N/A   Clear
5:53 PM 66.0 °F 15.1 °F 14% 29.80 in 10.0 mi NNW 20.7 mph 31.1 mph N/A   Clear
6:53 PM 62.1 °F 21.9 °F 21% 29.81 in 10.0 mi NNW 26.5 mph 33.4 mph N/A   Clear
7:53 PM 57.9 °F 21.9 °F 25% 29.84 in 10.0 mi NW 26.5 mph 35.7 mph N/A   Clear
8:53 PM 54.0 °F 21.9 °F 29% 29.86 in 10.0 mi NW 27.6 mph 35.7 mph N/A   Clear
9:53 PM 53.1 °F 21.9 °F 30% 29.88 in 10.0 mi NNW 23.0 mph 32.2 mph N/A   Scattered Clouds
10:53 PM 52.0 °F 26.1 °F 37% 29.91 in 10.0 mi NNW 20.7 mph 26.5 mph N/A   Overcast
11:53 PM 48.9 °F 26.1 °F 41% 29.92 in 10.0 mi NW 16.1 mph - N/A   Partly Cloudy